EW2804 Weather Reports


Display with metric or nautical units.
time (UTC)temp
F
wind
direction
speed
MPH
gust
MPH
rain 1hr
in
rain 24hr
in
rain mn
in
humidity
%
barometer
mb
20260503021121 63 213 0.0 0.0 0.00 0.00 0.00 69 1017.8
20260503020121 64 213 0.0 0.0 0.00 0.00 0.00 66 1017.7
20260503015143 65 213 0.0 0.0 0.00 0.00 0.00 65 1017.7
20260503014146 67 213 0.0 0.0 0.00 0.00 0.00 62 1017.7
20260503013111 68 213 0.0 0.0 0.00 0.00 0.00 59 1017.6
20260503012131 70 213 0.0 0.0 0.00 0.00 0.00 58 1017.5
20260503011149 71 213 0.0 0.0 0.00 0.00 0.00 53 1017.5
20260503010157 72 213 0.0 0.0 0.00 0.00 0.00 54 1017.4
20260503005200 74 213 0.0 0.0 0.00 0.00 0.00 50 1017.4
20260503004203 75 213 0.0 0.0 0.00 0.00 0.00 45 1017.3
20260503003143 75 213 0.0 2.0 0.00 0.00 0.00 42 1017.3
20260503002200 76 213 0.0 2.0 0.00 0.00 0.00 42 1017.3
20260503001202 76 213 0.0 0.0 0.00 0.00 0.00 42 1017.2
20260503000203 76 213 0.0 3.0 0.00 0.00 0.00 40 1017.3
20260502235223 76 238 0.0 2.0 0.00 0.00 0.00 42 1017.4
20260502234147 76 237 1.0 4.0 0.00 0.00 0.00 37 1017.4
20260502233200 76 237 1.0 7.0 0.00 0.00 0.00 40 1017.4
20260502231017 77 293 2.0 7.0 0.00 0.00 0.00 39 1017.6
20260502225954 78 198 0.0 6.0 0.00 0.00 0.00 40 1017.6
20260502224934 77 250 0.0 7.0 0.00 0.00 0.00 36 1017.6
20260502223910 77 321 1.0 7.0 0.00 0.00 0.00 41 1017.7
20260502222855 76 298 2.0 6.0 0.00 0.00 0.00 42 1017.9
20260502221844 76 243 1.0 4.0 0.00 0.00 0.00 39 1018.0
20260502220821 76 226 1.0 8.0 0.00 0.00 0.00 36 1018.0
20260502214712 77 267 1.0 6.0 0.00 0.00 0.00 37 1018.1
20260502213639 76 192 1.0 3.0 0.00 0.00 0.00 40 1018.2
20260502212606 77 222 0.0 9.0 0.00 0.00 0.00 35 1018.4
20260502211618 77 236 2.0 9.0 0.00 0.00 0.00 40 1018.5
20260502205536 76 257 1.0 5.0 0.00 0.00 0.00 37 1018.7
20260502204508 76 329 1.0 5.0 0.00 0.00 0.00 36 1018.9
20260502203528 75 5 0.0 4.0 0.00 0.00 0.00 38 1019.1
20260502201411 76 355 2.0 7.0 0.00 0.00 0.00 37 1019.4
20260502200419 75 278 1.0 8.0 0.00 0.00 0.00 40 1019.4
20260502195352 74 238 3.0 8.0 0.00 0.00 0.00 37 1019.5
20260502194332 75 261 1.0 3.0 0.00 0.00 0.00 36 1019.6
20260502193338 75 80 1.0 4.0 0.00 0.00 0.00 36 1019.6
20260502192337 74 136 1.0 6.0 0.00 0.00 0.00 33 1019.8
20260502191338 74 332 1.0 6.0 0.00 0.00 0.00 36 1020.0
20260502190340 74 48 1.0 6.0 0.00 0.00 0.00 36 1020.1
20260502185310 74 49 1.0 6.0 0.00 0.00 0.00 38 1020.2
20260502183059 74 325 1.0 7.0 0.00 0.00 0.00 39 1020.5
20260502182112 73 247 2.0 7.0 0.00 0.00 0.00 39 1020.6
20260502181040 73 244 1.0 6.0 0.00 0.00 0.00 37 1020.8
20260502163553 71 9 1.0 4.0 0.00 0.00 0.00 37 1021.6
20260502161437 70 313 1.0 6.0 0.00 0.00 0.00 40 1021.5
20260502160458 69 242 0.0 3.0 0.00 0.00 0.00 40 1021.6
20260502151513 67 232 0.0 0.0 0.00 0.00 0.00 52 1021.4
20260502150534 66 232 0.0 0.0 0.00 0.00 0.00 57 1021.4
20260502130217 50 179 0.0 0.0 0.00 0.00 0.00 88 1020.8
20260502123225 48 179 0.0 0.0 0.00 0.00 0.00 87 1020.3
20260502122158 47 179 0.0 0.0 0.00 0.00 0.00 88 1020.2
20260502121158 47 179 0.0 0.0 0.00 0.00 0.00 87 1019.9
20260502112820 47 179 0.0 0.0 0.00 0.00 0.00 86 1019.2
20260502111813 48 179 0.0 0.0 0.00 0.00 0.00 86 1019.2
20260502110737 48 179 0.0 0.0 0.00 0.00 0.00 86 1018.9
20260502104619 49 179 0.0 0.0 0.00 0.00 0.00 87 1018.8
20260502103552 49 179 0.0 0.0 0.00 0.00 0.00 87 1018.8
20260502102521 48 179 0.0 0.0 0.00 0.00 0.00 86 1018.7
20260502101501 48 179 0.0 0.0 0.00 0.00 0.00 86 1018.4
20260502100454 48 179 0.0 0.0 0.00 0.00 0.00 85 1018.4
20260502091435 50 179 0.0 0.0 0.00 0.00 0.00 85 1018.4
20260502090420 50 179 0.0 0.0 0.00 0.00 0.00 85 1018.3
20260502070717 51 156 0.0 0.0 0.00 0.00 0.00 85 1018.5
20260502065659 51 156 0.0 0.0 0.00 0.00 0.00 85 1018.6
20260502064651 51 156 0.0 0.0 0.00 0.00 0.00 84 1018.5
20260502063703 51 156 0.0 0.0 0.00 0.00 0.00 84 1018.5
20260502062703 52 156 0.0 0.0 0.00 0.00 0.00 84 1018.5
20260502061719 52 156 0.0 0.0 0.00 0.00 0.00 84 1018.5
20260502060657 52 156 0.0 0.0 0.00 0.00 0.00 84 1018.5
20260502055649 53 156 0.0 0.0 0.00 0.00 0.00 83 1018.5
20260502054629 53 156 0.0 0.0 0.00 0.00 0.00 83 1018.4
20260502053645 54 156 0.0 0.0 0.00 0.00 0.00 83 1018.4
20260502052651 54 156 0.0 0.0 0.00 0.00 0.00 84 1018.3
20260502050441 55 156 0.0 0.0 0.00 0.00 0.00 82 1018.2
20260502045445 55 156 0.0 0.0 0.00 0.00 0.00 81 1018.3
20260502044427 56 156 0.0 0.0 0.00 0.00 0.00 81 1018.3
20260502043353 56 156 0.0 0.0 0.00 0.00 0.00 82 1018.3
20260502042415 57 156 0.0 0.0 0.00 0.00 0.00 82 1018.2
20260502041434 57 156 0.0 0.0 0.00 0.00 0.00 82 1018.2
20260502040425 57 156 0.0 0.0 0.00 0.00 0.00 81 1018.0
20260502035349 57 156 0.0 0.0 0.00 0.00 0.00 81 1018.1
20260502034344 57 156 0.0 0.0 0.00 0.00 0.00 80 1018.0
20260502033321 57 156 0.0 0.0 0.00 0.00 0.00 80 1018.0
20260502032324 57 156 0.0 0.0 0.00 0.00 0.00 79 1018.0
20260502031258 58 156 0.0 1.0 0.00 0.00 0.00 79 1017.9
20260502030223 58 156 0.0 0.0 0.00 0.00 0.00 78 1017.7
20260502024055 59 0 0.0 0.0 0.00 0.00 0.00 78 1017.5
20260502023109 60 0 0.0 0.0 0.00 0.00 0.00 76 1017.2
20260502022130 60 0 0.0 0.0 0.00 0.00 0.00 75 1017.1